Wind_Speed
19 9 17 25 21 14 16 15 19 22 22 19 8 6 8 7 9 8 9 7 9 10 10 26 31 28 24 17 12 6 5 2 5 7 9 6 2 3 8 7 10 7 11 8
14 24 22 20 17 18 18 20 23 22 17 8 18 22 8 9 10 9 11 10 6 11 14 14 25 27 24 19 11 9 4 2 2 5 5 7 10 6 7 8 10 7 6 7
26 20 20 20 21 19 19 21 21 18 21 14 5 5 6 8 6 9 10 7 15 20 16 13 14 25 23 16 14 8 8 2 2 5 5 9 6 6 4 7 11 2 4 5
22 20 18 23 21 18 19 18 21 22 17 6 2 5 3 5 9 9 7 9 14 14 15 12 12 15 22 17 13 10 8 3 4 4 6 9 6 6 3 5 9 3 5 6
17 24 25 24 22 24 21 16 17 20 15 5 6 3 5 3 8 8 3 4 12 17 17 15 13 20 22 18 16 13 9 5 2 3 5 7 8 7 3 5 5 4 3 4
21 12 20 28 22 23 22 13 17 18 14 11 7 8 7 5 5 1 5 11 14 13 14 14 19 26 21 21 18 13 12 6 1 3 6 10 6 5 6 7 8 7 4 5
21 24 22 22 22 24 17 14 10 5 5 6 7 5 8 8 7 8 10 11 10 14 15 14 14 10 22 22 19 15 14 9 3 5 7 10 8 6 7 7 6 6 6 8
15 14 29 25 30 18 20 16 10 7 4 5 7 5 8 11 8 10 15 13 13 14 14 13 13 14 22 20 20 16 16 12 6 9 9 9 7 6 6 6 6 9 9 10
18 18 17 27 20 25 14 18 14 6 3 4 5 5 7 6 8 10 12 13 13 13 13 13 11 19 23 22 20 13 17 13 13 9 9 8 6 6 6 6 6 10 11 11
7 5 21 22 20 19 27 7 8 2 8 6 5 4 6 9 9 9 11 11 9 10 11 11 11 18 24 24 20 13 14 15 13 10 9 9 5 5 4 6 9 11 14 14
18 5 7 19 23 24 14 16 7 7 6 6 1 6 8 14 9 14 11 12 14 12 12 11 10 21 27 24 20 14 13 15 14 11 10 12 7 5 4 8 8 11 15 16
30 5 11 16 18 25 18 14 8 8 5 4 6 5 7 9 11 15 13 14 12 11 10 9 11 18 24 25 21 17 13 18 14 13 11 10 9 8 8 10 9 13 13 13
21 19 4 7 11 13 25 19 9 6 5 8 6 6 5 8 10 15 15 14 14 12 11 10 12 10 18 23 25 20 15 19 17 18 14 10 10 9 8 10 9 10 12 14
20 15 24 13 9 10 26 16 16 9 5 7 10 4 6 8 9 10 14 16 15 15 14 11 13 9 19 23 26 23 18 19 19 22 17 11 11 8 7 12 10 12 13 16
5 24 18 25 20 11 22 21 21 17 9 14 9 9 12 12 11 11 18 17 15 14 15 14 14 11 17 22 26 27 22 21 21 25 20 14 12 10 8 12 11 9 11 15
10 13 23 18 20 23 15 28 22 19 14 7 13 13 8 12 11 9 18 20 19 17 17 16 15 15 13 22 25 28 24 25 23 26 23 18 14 11 7 11 11 12 14 18
8 6 13 21 20 13 14 17 23 20 13 14 11 7 4 5 13 11 12 21 21 18 18 18 16 16 19 25 29 29 26 28 23 27 24 21 16 13 11 13 12 16 16 16
12 9 4 12 15 18 9 11 18 18 15 9 8 14 8 7 8 11 10 13 20 19 19 18 15 17 25 32 32 29 28 30 25 27 27 23 19 17 14 12 12 14 19 16
16 8 5 9 16 3 10 15 23 18 12 15 9 12 14 10 8 4 9 14 16 19 18 18 27 26 31 33 34 33 30 31 27 24 29 27 22 21 18 16 16 15 17 19
13 12 5 2 8 19 9 7 10 18 14 10 11 11 10 9 8 5 9 10 13 16 15 18 27 28 32 34 37 34 30 31 29 26 30 30 26 25 22 19 19 17 14 15
5 4 8 4 4 5 11 6 6 9 8 8 13 9 9 7 7 7 8 8 15 16 17 28 31 29 31 36 38 29 31 27 31 28 28 32 30 29 25 22 23 19 15 15
6 4 3 3 3 4 7 4 6 6 5 8 9 10 9 9 9 7 5 9 16 15 17 29 25 24 30 37 35 28 27 34 31 28 28 34 32 31 29 26 25 22 19 18
2 3 3 6 4 1 7 3 7 7 7 8 8 6 12 10 9 9 6 8 15 15 16 28 27 25 29 35 36 29 32 33 32 29 29 35 34 33 32 30 28 25 23 17
6 13 4 8 11 17 12 10 9 1 8 6 8 9 11 12 11 10 8 7 10 11 13 25 25 22 24 30 33 34 38 33 34 30 29 36 37 33 34 32 31 30 27 22
3 9 11 5 9 21 19 22 19 10 11 7 5 8 12 11 10 9 8 8 11 13 13 28 25 24 26 29 30 34 38 36 34 31 29 35 36 35 36 35 34 32 30 29
6 3 3 4 19 4 15 19 19 13 14 10 18 6 4 10 11 10 9 9 9 9 17 21 25 27 28 31 30 35 37 37 34 30 30 32 30 33 32 32 26 28 26 25
Wind_Direction
207 204 216 218 228 231 237 245 248 251 247 252 321 285 216 225 254 238 258 251 225 169 141 140 147 149 144 144 146 180 212 224 335 336 350 346 297 292 352 351 336 289 258 228
226 228 223 226 220 234 226 248 260 271 276 126 229 250 236 223 235 228 232 244 216 126 138 141 140 146 146 144 153 178 197 157 334 350 335 345 323 314 324 352 357 347 198 192
219 223 222 228 220 231 232 230 250 260 276 284 244 233 237 253 265 277 241 188 145 151 149 149 143 146 147 150 156 174 165 154 139 16 359 358 358 319 330 2 359 32 147 168
233 225 221 218 230 226 240 228 240 254 265 256 266 270 289 291 293 298 253 167 155 145 145 148 143 140 148 153 161 165 149 164 159 34 18 23 2 331 346 351 357 27 171 175
210 207 210 226 213 223 239 225 233 242 253 252 290 323 259 259 290 285 151 207 152 149 149 147 143 145 155 162 159 157 158 167 194 98 26 21 350 341 13 9 10 25 151 162
221 228 209 222 231 221 230 229 233 243 246 246 226 212 256 234 232 141 129 120 138 128 134 133 143 150 155 158 155 162 161 159 210 54 49 17 22 43 60 51 28 18 70 149
218 223 225 223 220 232 220 220 236 260 222 204 217 272 239 259 202 166 139 133 132 134 138 142 146 145 148 156 160 171 164 156 150 91 65 44 62 84 75 42 39 20 79 100
208 220 214 213 220 211 225 208 213 214 178 226 245 230 254 222 155 130 125 138 130 132 143 146 146 143 152 161 165 178 173 154 154 116 84 80 83 77 48 43 58 63 82 93
193 225 190 213 215 214 222 211 202 207 205 198 214 250 339 113 127 120 119 124 136 142 145 147 142 146 158 162 169 186 166 158 144 129 125 105 110 72 71 56 54 86 104 103
250 194 230 210 214 234 215 184 191 179 195 246 281 283 224 157 163 140 127 138 135 141 141 146 145 152 164 167 169 173 162 152 150 148 153 138 114 77 45 72 67 106 106 102
225 218 241 211 204 214 218 218 184 149 153 176 220 277 232 176 164 149 146 146 147 152 152 149 147 154 161 163 164 164 159 157 151 137 134 136 112 121 85 96 91 117 122 104
210 198 235 233 207 207 216 207 169 185 213 176 171 255 159 153 146 143 150 149 150 149 149 146 145 147 153 162 166 167 179 162 158 156 144 136 127 111 103 114 102 115 115 116
193 224 294 253 264 209 206 195 175 132 132 189 182 244 234 133 133 146 151 154 154 155 151 148 149 152 159 166 170 174 187 169 163 159 147 141 133 120 119 114 116 105 115 117
194 196 214 222 211 193 197 183 187 161 159 173 217 206 166 149 140 144 154 158 163 163 158 155 155 157 161 169 170 177 186 180 170 157 149 148 146 142 130 123 121 115 117 107
295 203 201 225 247 246 196 188 188 202 173 187 195 169 179 173 174 174 162 161 160 164 160 162 161 163 161 174 172 179 185 177 169 159 152 154 157 153 148 137 135 131 106 101
327 225 202 222 223 241 258 190 188 198 194 183 178 234 176 193 186 162 158 163 171 171 169 166 164 165 164 173 174 177 183 172 168 161 156 157 164 176 175 152 141 143 119 105
286 331 189 215 222 238 239 218 193 202 196 184 196 181 206 189 185 177 163 167 172 175 170 167 167 168 167 172 176 175 180 168 167 165 161 162 174 180 157 142 134 135 130 129
259 312 280 200 205 229 233 205 193 210 198 199 177 181 201 201 187 170 176 163 171 172 170 171 168 166 167 173 178 176 172 168 168 165 167 168 179 175 167 162 149 139 135 132
216 230 276 190 195 168 258 183 191 212 216 195 184 181 199 212 152 207 177 165 166 170 170 172 171 163 165 168 176 171 166 169 171 172 171 173 179 173 178 180 160 149 135 140
194 208 214 331 163 209 203 223 168 193 205 182 168 193 174 153 181 228 198 156 164 164 163 164 166 162 161 167 172 167 166 169 175 185 178 178 179 183 180 184 173 170 158 146
179 228 202 229 159 240 185 217 160 190 220 181 180 178 165 163 175 201 175 161 165 161 159 159 159 165 169 167 170 166 171 174 182 187 183 181 181 181 183 180 174 176 176 178
297 317 182 165 109 195 142 295 216 194 189 152 168 166 165 156 167 170 166 177 162 152 153 158 162 164 167 168 167 168 174 183 185 188 186 181 182 179 181 179 175 177 183 190
2 4 249 27 222 210 64 41 307 198 183 157 142 174 158 155 160 160 159 162 163 156 159 160 162 160 166 170 172 170 180 181 185 193 187 180 181 180 181 181 181 182 191 202
250 355 29 345 359 340 345 352 334 269 119 146 159 164 168 161 159 169 170 176 153 156 148 158 156 160 168 173 176 177 180 182 186 195 187 177 176 177 183 185 185 188 194 200
302 323 329 292 326 343 9 352 330 355 18 82 103 150 163 153 171 166 171 168 147 155 138 154 161 165 172 171 174 179 180 185 187 195 180 171 174 180 180 186 188 194 201 205
160 252 336 285 333 344 304 324 321 22 9 12 2 54 69 157 175 165 173 168 153 147 141 150 160 164 170 173 175 180 183 188 190 186 168 170 171 176 177 182 186 201 205 212
Height
724 745 746 740 737 738 743 744 743 724 710 716 722 721 711 702 706 706 704 703 704 705 708 714 720 726 731 737 744 751 754 756 756 755 753 751 750 749 747 745 742 741 741 743
733 729 721 720 727 732 736 742 738 720 707 712 722 720 706 704 704 696 696 697 698 707 711 715 719 725 730 736 742 749 752 754 754 754 753 750 749 748 746 743 741 739 738 741
720 709 710 717 722 728 727 736 734 733 711 701 709 723 709 696 692 687 684 686 694 698 709 714 719 724 730 735 742 747 751 753 753 753 751 749 747 746 745 743 741 740 740 740
707 702 705 712 718 718 733 711 716 719 724 750 702 759 716 705 703 690 683 687 694 699 705 711 717 723 729 735 742 746 749 752 752 751 751 748 747 746 744 742 741 739 740 740
695 696 702 707 705 703 713 701 708 710 722 726 722 745 726 701 710 696 686 680 695 695 701 710 717 722 728 734 740 745 748 750 751 750 750 748 746 745 744 742 741 740 739 739
684 675 684 691 689 690 690 701 704 706 715 743 729 734 731 720 701 687 686 688 692 698 704 711 717 722 727 734 740 744 747 749 750 750 749 748 746 744 744 743 742 740 739 738
682 679 673 674 691 684 690 710 741 756 748 762 713 725 726 694 685 684 690 691 694 697 704 711 716 722 727 733 738 743 746 748 749 750 749 748 747 745 745 745 743 741 739 739
693 699 670 660 673 687 691 698 726 761 760 743 709 733 711 677 673 676 678 685 692 699 703 709 714 720 726 732 737 741 744 747 748 749 749 749 749 747 746 745 744 743 742 741
680 677 642 647 650 664 682 694 682 716 708 733 721 702 684 676 681 681 684 689 697 700 704 708 714 719 725 730 735 739 742 745 747 748 749 750 750 748 747 747 745 744 744 744
654 682 646 643 646 647 660 660 699 713 744 754 725 713 717 694 687 683 688 694 698 701 704 708 712 717 723 728 733 738 741 744 746 747 749 749 750 749 748 748 748 747 747 746
650 661 655 644 650 658 660 670 673 691 712 745 747 735 680 677 677 686 688 689 694 699 702 706 711 716 721 727 732 737 740 743 745 747 749 750 750 750 749 750 750 749 749 749
632 658 671 650 625 627 641 656 672 692 714 707 723 724 662 668 673 674 682 684 691 695 700 705 710 715 721 725 731 735 739 742 744 747 749 750 751 752 751 752 752 752 751 752
627 651 682 658 646 631 641 638 651 670 687 706 723 721 664 661 668 669 679 683 687 693 698 703 709 714 719 723 728 733 737 740 742 745 748 750 752 753 753 754 754 755 754 754
613 633 645 658 639 629 642 640 643 667 697 696 692 687 676 670 668 673 676 678 683 688 693 700 706 711 716 721 726 731 735 738 741 744 747 750 752 754 754 755 756 757 758 758
623 626 624 625 624 621 621 631 637 652 667 679 678 682 673 667 666 666 667 673 681 687 690 696 702 707 712 718 722 727 732 736 739 743 746 750 753 755 755 757 758 759 760 760
642 617 614 629 616 618 630 616 624 634 647 658 660 668 652 648 649 658 662 667 675 679 683 689 696 701 708 713 718 723 728 733 737 741 745 749 753 755 756 758 759 760 762 763
659 640 622 636 618 623 642 617 619 625 632 642 665 654 640 647 650 654 658 659 666 670 676 682 688 694 701 707 713 719 725 731 735 740 744 748 752 754 756 758 760 762 764 765
654 655 634 625 628 657 618 604 603 619 624 629 636 638 638 641 640 641 644 651 657 661 668 674 681 688 694 702 708 715 721 727 733 738 743 746 751 753 756 759 761 764 766 767
639 651 642 631 632 618 609 599 606 617 633 616 630 628 627 631 636 637 633 638 645 650 656 663 671 680 688 696 705 711 718 724 730 735 740 744 748 752 755 758 761 764 767 769
619 627 636 625 643 637 609 591 587 600 636 611 615 624 627 631 657 652 631 632 637 642 649 658 666 674 682 690 699 707 714 720 726 732 737 741 745 750 754 757 760 764 767 769
620 621 629 629 631 614 588 581 581 634 640 602 604 613 620 633 635 626 623 628 630 637 645 653 662 669 676 685 693 701 709 715 721 727 732 737 742 747 751 756 759 763 766 769
642 631 617 619 621 628 574 583 608 605 588 591 597 603 612 613 617 619 618 625 628 634 642 649 658 666 674 680 688 696 703 710 717 723 727 733 738 743 748 753 757 762 766 769
647 647 648 640 619 585 579 583 582 581 587 585 589 595 599 608 612 615 619 624 624 629 637 644 653 662 671 677 683 690 698 706 713 719 722 727 734 739 744 749 754 759 763 766
663 648 639 635 612 607 600 586 580 573 575 575 578 588 593 602 605 611 616 620 623 626 634 641 651 660 668 674 680 685 693 702 708 714 718 723 730 736 741 746 751 755 759 763
662 661 650 640 624 615 611 611 600 587 577 574 574 580 587 593 600 605 612 616 618 623 630 638 646 655 663 670 677 683 690 697 703 709 714 719 725 730 736 741 745 751 755 759
668 666 659 649 642 649 642 626 605 599 601 599 596 584 584 587 594 597 605 610 614 620 625 635 643 651 660 666 673 679 686 692 698 703 709 714 720 726 731 737 744 748 752 756